Location: Bruneau Dunes Observatory
(42.9024°N, 115.6902°W)
Time: 15:44:49
(UTC-06:00)

Daily predictions for brighter satellites

Satellite Brightness Start Highest point End
(mag) Time Altitude Azimuth Time Altitude Azimuth Time Altitude Azimuth
GRACE-2 4.4 21:02:55 10° NNE 21:05:32 38° E 21:08:07 10° SSE
Resurs 01 Rocket 1.7 21:03:28 10° SSE 21:07:55 85° W 21:12:24 10° NNW
Cosmos 1331 Rocket 4.1 21:03:21 10° SSW 21:08:40 87° WNW 21:14:01 10° NNE
Helios 1A 3.5 21:05:11 10° SE 21:09:10 43° ENE 21:13:12 10° N
SAR-Lupe-4 4.2 21:08:16 10° SE 21:11:37 38° ENE 21:14:59 10° N
Atlas Centaur 2 4.3 21:07:53 10° S 21:12:02 16° SSE 21:16:32 10° ESE
USA 234 3.4 21:08:00 10° ESE 21:14:31 73° NE 21:21:05 10° NW
Cosmos 1242 Rocket 4.2 21:11:11 10° SSW 21:14:40 40° WNW 21:18:08 10° N
Cosmos 2227 4.3 21:11:11 10° NNW 21:16:56 68° ENE 21:22:36 10° SSE
Cosmos 2360 4.2 21:13:16 10° SSW 21:18:54 68° ESE 21:24:38 10° NNE
BREEZE-M DEB (TANK) 3.2 21:16:31 10° W 21:19:22 74° NNW 21:26:13 10° ENE
ATLAS CENTAUR R/B 3.2 21:17:44 10° WNW 21:20:01 28° SW 21:24:37 10° SSE
Cosmos 1408 3.6 21:18:15 10° NNE 21:21:34 29° ENE 21:24:35 11° SE
ERBS 2.8 21:19:48 10° NW 21:23:11 49° NE 21:26:02 14° ESE
ERS-1 Rocket 4.0 21:22:11 11° ESE 21:26:13 28° ENE 21:30:27 10° N
Molniya-1 2.8 21:25:23 10° SSW 21:26:59 37° ESE 21:29:03 10° NE
Cosmos 1455 2.3 21:23:44 10° S 21:27:32 81° W 21:31:20 10° N
Cosmos 1486 Rocket 4.0 21:22:47 10° NNW 21:28:03 88° ENE 21:33:18 10° SSE
SAR-Lupe-1 4.2 21:25:37 10° SSE 21:29:08 54° ENE 21:32:39 10° N
Cosmos 1869 3.3 21:28:15 10° S 21:32:06 59° E 21:36:00 10° NNE
OTV 4 3.1 21:32:08 10° SSW 21:32:27 10° SSW 21:32:47 10° SSW
Cosmos 220 Rocket 4.3 21:31:10 10° NNW 21:35:34 54° ENE 21:39:12 14° SE
Cosmos 1400 Rocket 4.4 21:34:37 10° NNW 21:38:11 35° W 21:41:45 10° SSW
SeaSat 1 3.7 21:39:59 14° E 21:43:11 26° NE 21:47:14 10° N
Cosmos 1892 4.5 21:40:10 10° NNW 21:43:35 32° W 21:47:00 10° SSW
USA 186 3.0 21:43:44 10° SSW 21:46:11 34° W 21:48:50 10° NNW
Cosmos 1697 Rocket 4.4 21:41:24 10° SW 21:46:37 37° WNW 21:51:50 10° N
Milstar 3 4.1 21:40:49 10° WSW 21:47:02 25° S 21:50:57 15° SE
CENTAUR R/B 3.9 21:41:34 10° WSW 21:47:27 44° NW 21:54:09 10° NNE
Cosmos 2026 Rocket 4.0 21:41:40 10° N 21:47:56 73° E 21:54:04 10° SSE
Cosmos 1315 Rocket 3.7 21:46:47 10° NNW 21:50:45 49° W 21:54:39 10° S
Cosmos 1933 3.9 21:50:28 18° SSE 21:52:55 37° E 21:56:40 10° NNE
Abrixas rocket 2.5 21:51:34 10° WSW 21:54:50 67° NNW 21:58:01 11° ENE
YAOGAN 6 2.8 21:54:40 24° SE 21:56:37 51° ENE 22:00:10 10° N
Cosmos 1503 Rocket 4.0 21:53:55 10° NNW 21:59:13 86° ENE 22:03:11 18° SSE
CZ-3B DEB 3.7 21:59:02 10° WSW 21:59:21 10° WSW 21:59:40 10° WSW
Cosmos 1354 Rocket 4.0 21:57:17 10° NNW 22:02:36 88° WSW 22:06:35 18° SSE
Cosmos 2263 Rocket 2.4 21:57:27 10° NNW 22:02:55 54° ENE 22:06:05 24° SE
H-2A R/B 3.4 22:04:41 18° E 22:06:17 21° ENE 22:09:58 10° NNE
Cosmos 1634 Rocket 4.4 22:00:33 10° SSW 22:06:47 67° W 22:13:07 10° N
Terra 3.9 22:05:46 11° ENE 22:06:54 12° ENE 22:08:36 10° NE
Cosmos 2322 Rocket 2.1 22:01:30 10° SSW 22:07:05 76° ESE 22:12:43 10° NNE
Meteor 1-29 3.6 22:04:06 10° N 22:07:32 57° WNW 22:10:56 10° SSW
Cosmos 1733 Rocket 3.0 22:04:15 10° N 22:08:43 80° E 22:11:35 22° SSE
Cosmos 1655 Rocket 4.0 22:03:41 10° N 22:10:08 87° E 22:15:50 13° S
Helios 1B rocket 3.4 22:06:38 10° N 22:10:36 48° WNW 22:14:33 10° SSW
Lacrosse 4 Rocket 1.5 22:09:32 10° NNW 22:13:52 81° WSW 22:16:01 29° SSE
Cosmos 1862 Rocket 3.5 22:11:07 14° S 22:14:59 76° E 22:19:29 10° NNE
Cosmos 1825 2.7 22:11:48 10° NNW 22:15:33 56° W 22:18:16 17° S
Meteor 2-10 Rocket 4.0 22:11:52 20° SSE 22:15:35 48° E 22:21:09 10° NNE
Cosmos 1862 3.3 22:13:41 10° N 22:17:43 83° W 22:19:52 27° S
Cosmos 2360 Rocket 2.7 22:15:51 26° SSE 22:18:13 37° ESE 22:23:21 10° NE
Cosmos 397 4.3 22:14:28 10° NNW 22:18:49 90° WNW 22:20:20 37° SSE
Cosmos 1980 Rocket 4.0 22:14:04 10° WSW 22:19:13 34° NW 22:24:25 10° N
GENESIS II 4.2 22:15:27 10° SSW 22:19:26 60° ESE 22:23:27 10° NE
Cosmos 2322 4.3 22:22:28 31° SE 22:23:49 35° ESE 22:28:56 10° NE
Cosmos 968 Rocket 3.9 22:19:43 10° N 22:24:42 45° ENE 22:26:25 34° ESE
Cosmos 1939 Rocket 4.0 22:21:31 13° SSW 22:24:55 40° W 22:28:45 10° NNW
NOAA 11 4.2 22:24:37 30° SSE 22:27:23 71° ENE 22:32:52 10° N
Envisat 4.2 22:23:52 10° SSW 22:28:35 39° W 22:33:21 10° NNW
YAOGAN 11 4.1 22:27:48 41° SE 22:29:11 67° ENE 22:33:31 10° N
Okean 1-7 4.2 22:32:09 27° ENE 22:32:09 27° ENE 22:35:20 10° NNE
SL-16 R/B 2.5 22:28:31 10° SSW 22:34:10 68° WNW 22:39:51 10° NNE
Cosmos 1703 Rocket 3.8 22:34:29 45° ESE 22:34:49 46° E 22:39:05 10° NNE
SPOT 5 2.9 22:34:04 41° SE 22:35:36 64° ENE 22:40:16 10° N
Cosmos 2266 Rocket 4.1 22:29:32 10° N 22:35:44 60° E 22:38:21 35° SE
Cosmos 2221 Rocket 4.3 22:37:29 36° E 22:37:29 36° E 22:41:10 10° NNE
CZ-4C R/B 4.5 22:34:30 10° NNW 22:39:35 22° NNE 22:44:55 11° ENE
ATLAS 5 CENTAUR R/B 2.4 22:39:12 10° NNW 22:45:09 71° NE 22:47:28 41° ESE
OAO 3 Rocket 4.1 22:40:58 10° WSW 22:44:57 32° SSW 22:44:57 32° SSW
MetOp-B 4.1 22:44:34 36° S 22:46:51 82° WSW 22:52:14 10° NNW
Nimbus 7 Rocket 4.4 22:44:12 10° NNE 22:50:04 62° ESE 22:52:11 39° SSE
Meteor 1-26 Rocket 4.1 22:48:41 31° S 22:51:32 83° E 22:57:21 10° NNE
SPOT 1/Viking Rocket 3.6 22:52:06 51° SE 22:53:15 67° ENE 22:58:27 10° N
Cosmos 2278 Rocket 4.1 22:50:51 10° N 22:54:24 17° NE 22:56:09 15° ENE
ARGOS 3.1 22:53:22 46° SSE 22:55:03 89° WSW 23:00:27 10° NNW
USA 234 4.3 22:54:42 23° S 22:57:51 34° SW 23:03:42 10° WNW
Cosmos 489 Rocket 4.5 22:52:26 10° NNW 22:58:48 82° WSW 23:01:08 42° S
Atlas Centaur 2 3.8 22:53:56 10° SW 22:59:34 29° S 22:59:34 29° S
ERS-1 Rocket 4.2 23:02:11 21° SSW 23:04:51 36° W 23:09:29 10° NNW
Cosmos 1844 Rocket 3.3 23:01:26 10° NNW 23:06:41 40° ENE 23:07:24 38° ENE
Sich 1 Rocket 4.2 23:03:44 10° NNW 23:08:05 54° W 23:08:57 45° SW
Meteor 1-10 Rocket 4.5 23:17:48 53° E 23:17:48 53° E 23:23:28 10° NNE
MOS 1-B Rocket 4.1 23:16:43 43° SSW 23:18:39 66° WSW 23:24:18 10° NNW
SeaSat 1 3.0 23:19:46 45° SW 23:20:27 48° WSW 23:25:14 10° NW
H-2A R/B 2.5 23:21:27 52° NNE 23:21:27 52° NNE 23:24:57 10° N
Cosmos 1777 Rocket 3.9 23:17:54 10° NNW 23:23:12 74° ENE 23:23:17 74° ENE
Cosmos 2219 Rocket 3.6 23:27:00 23° ENE 23:27:00 23° ENE 23:29:35 10° NE
Landsat 7 3.8 23:29:02 80° NW 23:29:02 80° NW 23:33:35 10° NNW
S3M 4.4 23:36:14 46° ENE 23:36:14 46° ENE 23:41:36 10° NNE
Cosmos 2237 4.1 23:37:21 74° SW 23:37:55 86° WNW 23:43:42 10° NNE
Okean 2 Rocket 3.7 23:35:01 10° NNW 23:38:59 55° WNW 23:38:59 55° WNW
DMSP B5D2-2 4.0 23:34:18 10° NNE 23:39:21 82° NNE 23:39:21 82° NNE
USA 229 DEB 3.6 23:39:03 24° SW 23:43:30 83° NW 23:50:30 10° NE
USA 229 3.6 23:39:21 25° SW 23:43:36 84° NW 23:50:35 10° NE
Terra 2.1 23:44:38 65° NNW 23:44:38 65° NNW 23:48:43 10° NNW
Cosmos 1867 4.1 23:38:52 10° NW 23:44:01 49° WSW 23:44:01 49° WSW
H-2A R/B 2.5 23:45:19 49° WSW 23:45:23 49° W 23:50:13 10° NNW
Cosmos 2263 Rocket 3.9 23:42:15 10° NW 23:46:24 22° W 23:47:48 20° WSW
COSMOS 2428 2.7 23:46:58 77° NE 23:46:58 77° NE 23:52:17 10° NNE
